Zurück zum Katalog

CZ-4 DEB

AktivSSO
NORAD 20849·DEBRIS·🇨🇳 China

Gestartet Sep 3, 1990 von Taiyuan Satellite Launch Center

Loading…

Nächste Überflüge (nächste 24 Stunden)

TLE

AktuellSource: Space-Track

Epoche: Sep 14, 2026, 09:06 UTC

1 20849U 90081M   26257.37974176  .00000522  00000-0  26836-3 0  9994
2 20849  98.6867 235.7628 0037920 200.2083 159.7594 14.19154859848623

Verfolge CZ-4 DEB in Echtzeit mit AllMySat

Download on the App Store